Precipitable_Water
1.00 0.99 1.00 0.99 0.96 1.00 0.99 1.02 0.93 0.80 0.79 0.86 0.87 1.02 1.05 1.05 1.08 1.05 0.98 0.87 0.76 0.74 0.73 0.60 0.51 0.46 0.46 0.46 0.44 0.42 0.41 0.39 0.37 0.37 0.39 0.40 0.42 0.45
0.91 0.93 0.94 0.94 0.94 0.97 0.92 0.94 0.90 0.86 0.80 0.84 0.89 0.95 0.99 0.99 1.02 1.00 0.97 0.91 0.84 0.82 0.70 0.58 0.51 0.44 0.40 0.36 0.35 0.36 0.36 0.36 0.36 0.36 0.39 0.41 0.44 0.45
0.86 0.86 0.86 0.89 0.88 0.89 0.88 0.90 0.88 0.83 0.77 0.81 0.85 0.88 0.91 0.90 0.92 0.91 0.91 0.84 0.75 0.66 0.58 0.52 0.49 0.46 0.40 0.39 0.38 0.36 0.35 0.36 0.36 0.37 0.38 0.40 0.44 0.46
0.76 0.78 0.78 0.83 0.83 0.85 0.84 0.82 0.82 0.82 0.76 0.73 0.77 0.80 0.81 0.83 0.82 0.78 0.75 0.71 0.61 0.55 0.46 0.39 0.37 0.37 0.36 0.35 0.33 0.34 0.34 0.36 0.36 0.35 0.36 0.37 0.39 0.43
0.69 0.70 0.71 0.73 0.73 0.75 0.77 0.77 0.77 0.76 0.73 0.74 0.69 0.68 0.73 0.72 0.69 0.63 0.55 0.50 0.45 0.41 0.39 0.37 0.35 0.36 0.35 0.35 0.36 0.35 0.34 0.35 0.35 0.35 0.35 0.36 0.36 0.38
0.62 0.63 0.64 0.67 0.67 0.67 0.70 0.71 0.72 0.71 0.71 0.69 0.65 0.65 0.65 0.63 0.63 0.56 0.49 0.45 0.39 0.37 0.39 0.39 0.39 0.38 0.36 0.36 0.36 0.36 0.36 0.35 0.36 0.37 0.38 0.39 0.40 0.40
0.55 0.57 0.58 0.58 0.62 0.63 0.64 0.65 0.65 0.63 0.64 0.64 0.63 0.59 0.55 0.54 0.52 0.51 0.46 0.41 0.38 0.35 0.33 0.35 0.38 0.39 0.39 0.40 0.38 0.38 0.38 0.39 0.40 0.40 0.39 0.40 0.40 0.42
0.46 0.50 0.51 0.53 0.56 0.57 0.55 0.58 0.60 0.59 0.57 0.58 0.57 0.54 0.53 0.51 0.49 0.46 0.42 0.37 0.32 0.34 0.32 0.31 0.34 0.35 0.37 0.38 0.40 0.41 0.40 0.37 0.39 0.41 0.40 0.40 0.42 0.43
0.45 0.45 0.45 0.47 0.49 0.50 0.52 0.53 0.54 0.55 0.56 0.55 0.53 0.53 0.52 0.50 0.47 0.42 0.40 0.36 0.33 0.35 0.32 0.30 0.32 0.33 0.37 0.39 0.40 0.41 0.41 0.42 0.41 0.41 0.41 0.43 0.46 0.48
0.39 0.40 0.41 0.42 0.44 0.46 0.46 0.45 0.45 0.48 0.51 0.50 0.49 0.48 0.48 0.47 0.46 0.43 0.40 0.38 0.37 0.36 0.34 0.30 0.35 0.36 0.39 0.39 0.40 0.41 0.43 0.45 0.46 0.49 0.49 0.50 0.50 0.50
0.29 0.31 0.34 0.37 0.39 0.41 0.42 0.42 0.43 0.43 0.45 0.47 0.49 0.48 0.48 0.45 0.43 0.41 0.38 0.36 0.33 0.34 0.37 0.36 0.36 0.37 0.38 0.39 0.41 0.42 0.44 0.47 0.48 0.49 0.49 0.49 0.49 0.48
0.23 0.24 0.26 0.28 0.32 0.35 0.37 0.36 0.34 0.37 0.41 0.43 0.44 0.43 0.45 0.46 0.46 0.41 0.38 0.35 0.34 0.34 0.38 0.37 0.39 0.38 0.37 0.41 0.43 0.44 0.45 0.46 0.46 0.47 0.47 0.47 0.47 0.46
0.15 0.18 0.21 0.23 0.25 0.28 0.30 0.32 0.32 0.36 0.35 0.36 0.38 0.40 0.42 0.43 0.42 0.46 0.43 0.40 0.37 0.36 0.41 0.39 0.41 0.41 0.41 0.40 0.40 0.40 0.40 0.39 0.39 0.39 0.39 0.40 0.42 0.43
0.12 0.13 0.14 0.17 0.20 0.22 0.24 0.26 0.29 0.32 0.31 0.32 0.32 0.32 0.34 0.36 0.39 0.42 0.43 0.43 0.44 0.42 0.43 0.43 0.39 0.39 0.37 0.36 0.35 0.37 0.38 0.37 0.37 0.36 0.36 0.36 0.37 0.37
0.09 0.11 0.13 0.14 0.14 0.15 0.20 0.23 0.26 0.27 0.26 0.26 0.27 0.28 0.31 0.33 0.34 0.36 0.38 0.39 0.39 0.40 0.41 0.41 0.38 0.37 0.36 0.33 0.33 0.34 0.34 0.35 0.34 0.34 0.33 0.33 0.32 0.32
0.08 0.08 0.07 0.08 0.10 0.13 0.13 0.12 0.16 0.20 0.23 0.23 0.24 0.26 0.29 0.29 0.30 0.32 0.30 0.31 0.31 0.32 0.36 0.37 0.36 0.35 0.32 0.32 0.32 0.30 0.32 0.30 0.32 0.32 0.32 0.31 0.32 0.31
0.11 0.12 0.11 0.11 0.09 0.08 0.06 0.07 0.09 0.11 0.14 0.19 0.20 0.21 0.23 0.25 0.26 0.28 0.28 0.28 0.26 0.26 0.27 0.30 0.32 0.32 0.32 0.30 0.28 0.29 0.29 0.29 0.30 0.30 0.29 0.28 0.29 0.29
0.12 0.11 0.11 0.11 0.11 0.11 0.10 0.09 0.07 0.06 0.08 0.11 0.14 0.17 0.18 0.19 0.21 0.23 0.24 0.23 0.23 0.23 0.24 0.26 0.26 0.26 0.26 0.28 0.30 0.27 0.27 0.27 0.28 0.28 0.28 0.26 0.25 0.27
0.08 0.08 0.08 0.09 0.09 0.10 0.10 0.11 0.10 0.10 0.10 0.08 0.07 0.09 0.12 0.14 0.16 0.18 0.19 0.20 0.20 0.20 0.21 0.22 0.22 0.21 0.19 0.18 0.22 0.25 0.24 0.26 0.26 0.25 0.26 0.25 0.24 0.25
0.08 0.07 0.06 0.06 0.07 0.08 0.09 0.10 0.11 0.11 0.11 0.11 0.11 0.10 0.10 0.10 0.09 0.09 0.11 0.13 0.15 0.17 0.18 0.19 0.19 0.19 0.18 0.17 0.18 0.20 0.23 0.22 0.21 0.21 0.22 0.23 0.24 0.25
0.08 0.07 0.07 0.07 0.07 0.07 0.07 0.09 0.11 0.11 0.12 0.11 0.11 0.12 0.12 0.11 0.11 0.10 0.10 0.10 0.10 0.11 0.11 0.12 0.14 0.17 0.18 0.19 0.16 0.16 0.17 0.19 0.20 0.19 0.19 0.17 0.16 0.16
0.07 0.06 0.07 0.07 0.07 0.07 0.07 0.07 0.09 0.10 0.10 0.10 0.11 0.11 0.12 0.13 0.12 0.11 0.12 0.11 0.11 0.11 0.12 0.13 0.13 0.13 0.13 0.12 0.11 0.12 0.12 0.13 0.15 0.16 0.17 0.18 0.15 0.12
0.08 0.07 0.07 0.07 0.07 0.08 0.08 0.08 0.07 0.07 0.09 0.10 0.09 0.09 0.10 0.11 0.13 0.13 0.13 0.12 0.12 0.12 0.11 0.11 0.11 0.11 0.10 0.10 0.10 0.10 0.10 0.10 0.11 0.11 0.11 0.13 0.13 0.14
Wind_Speed
44 42 43 41 39 40 41 41 39 39 42 42 40 42 40 39 36 35 35 34 33 32 31 32 31 31 31 31 29 29 28 28 28 27 27 27 27 27
40 45 46 44 43 43 41 45 42 42 42 43 44 44 46 43 42 41 40 38 37 35 34 34 33 32 32 32 32 31 31 31 31 31 30 30 31 30
40 41 45 48 47 47 45 44 44 42 42 43 44 43 46 45 43 43 43 42 41 41 39 38 38 36 37 36 36 35 35 35 34 34 34 34 33 33
36 37 38 41 41 46 47 46 45 45 45 44 45 47 47 47 47 44 45 45 44 43 42 41 40 40 39 38 38 38 37 36 36 35 36 36 36 36
36 35 35 37 40 42 45 46 47 44 44 46 44 45 47 49 48 47 46 46 46 45 44 43 42 42 41 40 40 40 40 39 38 38 38 38 38 38
39 37 37 36 38 38 39 44 45 44 46 45 46 46 47 48 49 49 48 46 46 46 46 46 45 44 43 43 42 42 41 41 41 41 41 41 41 41
36 37 38 39 37 38 39 39 40 42 43 45 48 47 47 48 50 50 50 49 48 48 48 47 46 45 45 45 44 44 43 43 43 43 43 43 44 44
35 36 36 36 36 37 38 39 41 42 42 43 45 47 48 49 50 52 51 49 49 51 49 49 49 48 48 47 46 46 45 45 45 45 45 46 46 46
30 32 34 36 37 37 38 38 39 41 44 45 45 46 47 48 49 50 52 51 51 50 51 51 51 50 50 50 49 50 49 48 48 49 48 49 49 50
29 30 32 34 36 37 38 39 40 41 41 42 44 45 46 47 49 49 50 51 51 51 52 52 52 52 52 52 53 53 52 52 51 52 53 53 53 54
29 31 32 33 34 36 38 40 41 42 43 43 43 45 45 46 48 49 49 50 51 51 52 51 52 52 53 54 54 55 56 56 56 55 56 56 56 56
32 32 33 34 35 36 37 39 40 42 44 45 46 46 47 48 49 50 51 52 52 53 55 54 54 54 55 57 58 59 59 60 59 59 59 60 59 58
35 36 36 37 38 39 40 40 40 42 44 46 47 48 49 50 51 52 53 53 55 56 55 56 57 57 58 57 56 56 56 57 57 58 58 58 58 58
37 38 40 41 42 43 44 45 45 44 44 45 47 48 50 50 51 53 54 55 57 58 57 58 58 59 59 59 59 59 59 59 59 60 60 60 59 59
39 41 42 43 44 45 46 46 47 48 48 47 48 49 50 51 52 53 54 55 56 56 56 56 57 58 58 59 59 60 59 59 60 60 59 58 57 57
38 40 41 43 46 48 48 49 49 50 50 51 52 51 51 52 52 53 53 54 55 57 58 59 59 60 60 60 60 60 59 58 56 57 57 57 58 58
39 40 41 41 42 43 45 48 50 52 52 53 53 52 53 52 52 53 54 54 54 54 54 55 56 57 58 59 59 59 58 59 58 58 58 58 59 59
34 35 37 40 42 43 44 45 45 48 51 53 55 56 55 55 55 54 54 54 54 55 55 54 54 55 55 56 57 57 57 57 57 57 57 58 59 58
32 34 35 36 38 39 41 42 45 46 46 48 51 54 55 57 57 58 58 57 57 56 56 56 55 55 55 55 55 55 55 55 55 56 57 58 59 60
32 33 35 36 37 39 39 40 42 42 44 46 47 48 50 53 55 57 58 59 59 59 58 57 56 56 56 56 55 55 55 54 55 56 56 57 58 58
32 33 35 36 37 38 39 40 40 41 41 42 43 46 47 48 49 50 51 52 53 53 54 55 55 56 55 55 55 55 55 55 56 56 56 56 56 56
31 32 33 34 35 36 37 38 39 39 40 40 41 41 41 44 46 47 47 48 49 51 51 51 51 52 52 53 54 55 56 56 56 57 57 57 56 56
30 31 32 33 34 34 35 36 37 38 38 38 39 39 40 40 40 41 43 45 46 47 48 49 50 51 53 54 55 56 56 56 56 57 58 59 60 62
Wind_Direction
231 232 229 237 232 229 233 226 231 233 230 230 232 231 231 232 232 232 232 237 239 239 238 238 239 240 241 244 245 248 250 254 256 257 259 261 263 265
238 239 235 235 236 234 231 232 236 234 234 235 235 235 231 234 236 236 237 238 239 238 241 242 242 242 243 246 247 250 253 256 257 258 259 262 264 265
243 240 239 239 239 233 236 238 235 235 235 235 235 236 232 235 237 238 239 239 241 242 243 243 245 245 248 250 249 252 253 256 257 257 260 263 264 264
241 241 240 237 239 239 237 235 235 237 239 239 237 236 235 235 238 239 241 241 242 242 244 245 247 248 249 250 249 250 253 255 257 257 260 262 263 265
241 241 242 241 241 242 239 239 235 239 238 238 238 237 236 236 239 240 241 241 242 243 244 246 247 248 249 250 251 253 254 256 258 258 260 262 263 264
243 244 243 242 242 242 241 240 239 241 240 239 238 237 238 239 239 239 240 241 242 243 245 246 247 248 249 251 252 253 255 256 258 259 260 262 263 264
243 244 246 246 246 244 244 241 240 241 242 241 240 240 239 239 239 239 241 243 244 244 244 245 246 248 249 251 252 252 254 257 259 260 260 262 264 265
247 245 246 247 247 247 245 244 244 243 243 243 243 240 241 241 241 240 242 242 243 243 244 246 247 248 249 250 251 253 256 258 259 261 262 263 265 265
249 249 248 249 249 249 247 247 247 247 246 245 244 244 243 243 241 241 240 241 244 245 244 246 247 248 249 250 252 255 257 259 260 262 263 263 265 266
253 253 253 253 252 251 251 250 250 249 249 248 246 245 245 243 242 243 242 242 244 246 245 248 248 249 249 252 254 256 257 258 262 263 263 264 267 268
258 258 257 257 257 256 255 253 253 251 251 250 249 248 247 245 244 243 243 242 245 246 246 248 249 250 249 254 255 257 258 260 262 263 264 265 266 269
261 261 261 259 259 259 258 257 256 255 253 252 251 250 249 248 246 246 246 246 247 248 249 250 250 252 254 256 257 259 260 261 262 263 265 266 266 268
264 263 263 263 262 261 260 259 259 258 256 255 254 253 251 250 249 249 248 248 249 250 251 251 253 254 255 257 258 259 260 261 262 263 265 265 266 267
267 266 265 264 265 264 262 261 260 260 259 257 255 254 253 252 252 251 250 251 251 252 252 252 254 254 255 257 259 260 261 261 262 264 265 265 265 266
270 268 268 267 266 264 264 263 261 260 259 259 257 256 255 254 254 253 252 252 252 253 253 252 254 256 257 258 260 260 261 262 262 264 264 264 264 265
273 272 271 270 267 266 264 263 262 260 260 259 258 258 256 255 254 254 253 253 253 254 254 255 256 257 258 259 260 260 261 261 262 263 263 264 264 265
274 273 272 271 270 269 267 264 262 261 260 259 259 258 256 256 255 254 254 254 254 254 255 256 256 257 258 259 260 260 261 262 262 263 264 264 265 266
277 276 275 273 272 270 269 267 265 263 261 259 258 257 257 256 255 254 254 254 255 255 256 256 258 259 259 260 259 261 261 262 262 263 264 265 266 266
279 278 277 275 275 273 272 270 267 265 263 261 259 258 257 256 256 256 255 255 255 255 256 256 257 257 258 259 260 260 262 262 263 264 264 265 267 268
280 280 279 278 277 275 273 272 270 268 265 262 260 259 258 257 257 257 256 256 256 255 255 256 256 257 258 259 260 260 261 263 264 265 266 266 267 268
283 283 282 281 279 277 275 272 270 267 266 265 263 260 259 258 257 257 256 254 254 254 255 255 256 257 258 259 260 261 262 263 264 266 267 267 268 269
286 287 285 284 282 279 276 274 271 268 266 265 264 262 261 258 257 256 254 254 255 256 256 256 256 257 258 259 261 262 263 264 265 265 265 266 268 269
287 289 288 288 285 283 279 275 271 269 266 265 263 262 261 259 257 256 256 256 257 257 256 257 258 259 260 261 263 263 264 265 266 266 266 267 269 270